sat.trackr.live / text

‹ back to catalog

STARLINK-30528

NORAD 57967 · 2023-151D

PAYLOAD ACTIVE UNKNOWN

§ Identity

Operator
Country
US
Launch date
2023-09-30
Launch site
AFETR
Launch vehicle
Mass (kg)
RCS (m²)

Purposes: comms

External: N2YO · Heavens-Above · Gunter

§ Orbital elements

Epoch: 2026-05-25T00:43:14.973024Z

Period
94.27 min
Inclination
43.0010°
Eccentricity
0.0001088
Mean motion
15.27577107 rev/d
Perigee alt
482.3 km
Apogee alt
483.8 km
Semi-major
6,861.2 km
B*
3.0896e-5
RAAN
264.7065°
Arg perigee
277.5669°
Mean anomaly
82.5059°
Rev number
14,744

§ Raw data

STARLINK-305281 57967U 23151D   26145.03003441  .00000588  00000+0  30896-4 0  99992 57967  43.0010 264.7065 0001088 277.5669  82.5059 15.27577107147444

JSON: /api/v1/satellites/57967 · /tle

For live sub-satellite position, see the globe view (requires WebGL).

§ Visibility from observer

Set your observer location to see the next 7 days of passes ≥ 10°. The values pass through the URL so the page stays shareable.

No JS? Fill the form by hand. The geolocation button needs JavaScript.